EW5039 Weather Reports


time (UTC)temp
C
wind
direction
speed
KPH
gust
KPH
rain 1hr
cm
rain 24hr
cm
rain mn
cm
humidity
%
barometer
mb
20260504222120 26 250 32.2 45.1 0.00 0.00 0.00 49 1000.7
20260504221920 26 259 32.2 46.7 0.00 0.00 0.00 49 1000.7
20260504221723 26 251 32.2 48.3 0.00 0.00 0.00 49 1000.7
20260504221533 26 238 32.2 48.3 0.00 0.00 0.00 49 1000.8
20260504221200 26 246 33.8 48.3 0.00 0.00 0.00 48 1000.7
20260504220959 26 252 29.0 48.3 0.00 0.00 0.00 48 1000.8
20260504220803 27 251 29.0 43.5 0.00 0.00 0.00 47 1000.8
20260504220603 27 246 29.0 43.5 0.00 0.00 0.00 47 1000.8
20260504220403 27 250 33.8 45.1 0.00 0.00 0.00 47 1000.7
20260504220145 27 241 35.4 49.9 0.00 0.00 0.00 46 1000.8
20260504215945 27 259 35.4 49.9 0.00 0.00 0.00 47 1000.7
20260504215750 27 250 37.0 49.9 0.00 0.00 0.00 47 1000.6
20260504215550 27 263 37.0 49.9 0.00 0.00 0.00 47 1000.6
20260504215350 27 252 37.0 49.9 0.00 0.00 0.00 47 1000.6
20260504215130 27 263 37.0 48.3 0.00 0.00 0.00 47 1000.7
20260504214931 27 240 35.4 45.1 0.00 0.00 0.00 48 1000.7
20260504214729 27 244 33.8 45.1 0.00 0.00 0.00 47 1000.7
20260504214533 27 261 33.8 46.7 0.00 0.00 0.00 47 1000.6
20260504214333 27 254 33.8 51.5 0.00 0.00 0.00 47 1000.6
20260504214116 27 239 35.4 51.5 0.00 0.00 0.00 47 1000.7
20260504213916 27 242 37.0 51.5 0.00 0.00 0.00 47 1000.9
20260504213716 27 263 37.0 51.5 0.00 0.00 0.00 47 1000.8
20260504213519 27 242 40.2 51.5 0.00 0.00 0.00 47 1000.9
20260504213320 27 247 37.0 48.3 0.00 0.00 0.00 47 1001.0
20260504213102 27 242 35.4 46.7 0.00 0.00 0.00 47 1000.9
20260504212901 27 247 35.4 46.7 0.00 0.00 0.00 47 1000.8
20260504212701 27 253 35.4 49.9 0.00 0.00 0.00 47 1000.8
20260504212504 27 253 33.8 49.9 0.00 0.00 0.00 47 1000.7
20260504212304 27 263 30.6 49.9 0.00 0.00 0.00 47 1000.7
20260504212101 27 262 30.6 49.9 0.00 0.00 0.00 46 1000.7
20260504211905 27 268 30.6 46.7 0.00 0.00 0.00 46 1000.6
20260504211705 27 247 30.6 46.7 0.00 0.00 0.00 47 1000.7
20260504211519 27 240 32.2 48.3 0.00 0.00 0.00 48 1000.8
20260504211144 27 271 33.8 48.3 0.00 0.00 0.00 48 1000.7
20260504210946 27 244 35.4 48.3 0.00 0.00 0.00 47 1000.8
20260504210746 27 254 37.0 46.7 0.00 0.00 0.00 49 1000.7
20260504210525 27 254 33.8 46.7 0.00 0.00 0.00 49 1000.7
20260504210329 27 261 30.6 45.1 0.00 0.00 0.00 47 1000.9
20260504210129 27 265 29.0 43.5 0.00 0.00 0.00 48 1000.7
20260504205932 27 254 29.0 43.5 0.00 0.00 0.00 47 1000.8
20260504205733 27 256 30.6 43.5 0.00 0.00 0.00 47 1000.8
20260504205532 27 263 32.2 43.5 0.00 0.00 0.00 49 1000.9
20260504205336 27 262 32.2 43.5 0.00 0.00 0.00 48 1001.0
20260504205136 27 242 32.2 43.5 0.00 0.00 0.00 48 1000.8
20260504204940 27 263 32.2 51.5 0.00 0.00 0.00 47 1000.9
20260504204719 27 256 30.6 51.5 0.00 0.00 0.00 47 1000.9
20260504204520 27 267 35.4 51.5 0.00 0.00 0.00 47 1001.1
20260504204323 27 253 35.4 51.5 0.00 0.00 0.00 48 1001.0
20260504204123 27 257 35.4 53.1 0.00 0.00 0.00 47 1001.1
20260504203901 27 236 35.4 53.1 0.00 0.00 0.00 47 1001.1
20260504203704 27 249 35.4 53.1 0.00 0.00 0.00 47 1001.1
20260504203505 27 247 35.4 53.1 0.00 0.00 0.00 46 1001.3
20260504203309 27 244 33.8 48.3 0.00 0.00 0.00 47 1001.1
20260504203108 27 248 30.6 48.3 0.00 0.00 0.00 47 1001.1
20260504202847 27 247 29.0 43.5 0.00 0.00 0.00 48 1001.2
20260504202629 27 258 27.4 41.8 0.00 0.00 0.00 49 1001.2
20260504202429 27 254 30.6 41.8 0.00 0.00 0.00 48 1001.1
20260504202212 27 257 32.2 43.5 0.00 0.00 0.00 49 1001.2
20260504202012 27 276 33.8 43.5 0.00 0.00 0.00 49 1001.2
20260504201812 27 259 35.4 43.5 0.00 0.00 0.00 48 1001.2
20260504201625 27 257 35.4 43.5 0.00 0.00 0.00 48 1001.2
20260504201229 27 259 30.6 46.7 0.00 0.00 0.00 49 1001.2
20260504201012 26 265 33.8 48.3 0.00 0.00 0.00 47 1001.3
20260504200812 26 243 33.8 48.3 0.00 0.00 0.00 47 1001.3
20260504200614 26 262 35.4 48.3 0.00 0.00 0.00 48 1001.4
20260504200354 26 238 33.8 48.3 0.00 0.00 0.00 48 1001.5
20260504200154 26 250 33.8 46.7 0.00 0.00 0.00 49 1001.5
20260504195938 26 240 33.8 46.7 0.00 0.00 0.00 48 1001.4
20260504195716 26 246 35.4 49.9 0.00 0.00 0.00 47 1001.5
20260504195516 27 225 33.8 53.1 0.00 0.00 0.00 47 1001.6
20260504195320 26 261 37.0 53.1 0.00 0.00 0.00 47 1001.6
20260504195119 26 244 37.0 53.1 0.00 0.00 0.00 48 1001.5
20260504194922 26 236 38.6 54.7 0.00 0.00 0.00 47 1001.6
20260504194702 26 242 35.4 54.7 0.00 0.00 0.00 46 1001.6
20260504194501 26 240 37.0 54.7 0.00 0.00 0.00 47 1001.5
20260504194305 26 244 37.0 54.7 0.00 0.00 0.00 47 1001.5
20260504194104 26 240 37.0 54.7 0.00 0.00 0.00 46 1001.6
20260504193907 27 246 35.4 48.3 0.00 0.00 0.00 46 1001.5
20260504193707 27 255 33.8 48.3 0.00 0.00 0.00 47 1001.6
20260504193507 27 245 32.2 48.3 0.00 0.00 0.00 47 1001.5
20260504193311 27 260 30.6 48.3 0.00 0.00 0.00 46 1001.4
20260504193049 27 273 29.0 48.3 0.00 0.00 0.00 46 1001.4
20260504192849 27 261 29.0 46.7 0.00 0.00 0.00 48 1001.3
20260504192653 27 281 32.2 46.7 0.00 0.00 0.00 47 1001.4
20260504192454 27 269 35.4 45.1 0.00 0.00 0.00 45 1001.3
20260504192257 27 252 35.4 45.1 0.00 0.00 0.00 45 1001.3
20260504192037 27 271 35.4 45.1 0.00 0.00 0.00 45 1001.3
20260504191836 27 269 30.6 41.8 0.00 0.00 0.00 45 1001.4
20260504191627 27 261 29.0 40.2 0.00 0.00 0.00 46 1001.4
20260504191252 27 259 25.7 41.8 0.00 0.00 0.00 47 1001.5
20260504191034 26 247 27.4 41.8 0.00 0.00 0.00 47 1001.5
20260504190834 26 271 27.4 43.5 0.00 0.00 0.00 48 1001.6
20260504190637 26 261 30.6 43.5 0.00 0.00 0.00 48 1001.6
20260504190436 26 244 32.2 48.3 0.00 0.00 0.00 48 1001.6
20260504190236 26 247 33.8 48.3 0.00 0.00 0.00 47 1001.7
20260504190039 26 259 35.4 48.3 0.00 0.00 0.00 47 1001.7
20260504185839 26 246 37.0 48.3 0.00 0.00 0.00 47 1001.5
20260504185643 26 263 35.4 48.3 0.00 0.00 0.00 47 1001.6
20260504185442 26 263 35.4 48.3 0.00 0.00 0.00 46 1001.6
20260504185241 26 241 32.2 48.3 0.00 0.00 0.00 47 1001.8
20260504185044 26 248 35.4 51.5 0.00 0.00 0.00 46 1001.8
20260504184824 26 267 33.8 51.5 0.00 0.00 0.00 47 1001.7
20260504184623 26 281 37.0 51.5 0.00 0.00 0.00 47 1001.9
20260504184406 26 276 37.0 51.5 0.00 0.00 0.00 47 1001.9
20260504184205 26 255 38.6 49.9 0.00 0.00 0.00 45 1001.8
20260504184009 26 272 35.4 48.3 0.00 0.00 0.00 47 1001.7
20260504183808 26 259 35.4 48.3 0.00 0.00 0.00 46 1001.9
20260504183608 26 245 33.8 48.3 0.00 0.00 0.00 48 1002.2
20260504183412 26 246 35.4 49.9 0.00 0.00 0.00 47 1002.0
20260504183212 26 259 32.2 49.9 0.00 0.00 0.00 46 1002.0
20260504183017 26 241 30.6 45.1 0.00 0.00 0.00 47 1002.0
20260504182816 26 258 32.2 54.7 0.00 0.00 0.00 47 1001.9
20260504182617 26 250 33.8 54.7 0.00 0.00 0.00 47 1001.9
20260504182359 26 277 32.2 54.7 0.00 0.00 0.00 47 1001.9
20260504182159 26 291 30.6 54.7 0.00 0.00 0.00 47 1001.9
20260504181959 26 275 33.8 51.5 0.00 0.00 0.00 47 1002.1
20260504181802 26 261 35.4 51.5 0.00 0.00 0.00 47 1002.2
20260504181612 26 251 35.4 51.5 0.00 0.00 0.00 47 1002.2
20260504181237 25 259 32.2 51.5 0.00 0.00 0.00 49 1002.1
20260504181036 25 263 35.4 51.5 0.00 0.00 0.00 48 1002.0
20260504180840 25 251 38.6 51.5 0.00 0.00 0.00 48 1002.0
20260504180620 25 258 37.0 51.5 0.00 0.00 0.00 48 1001.9
20260504180419 25 254 29.0 41.8 0.00 0.00 0.00 47 1001.9
20260504180222 25 292 29.0 41.8 0.00 0.00 0.00 47 1001.9
20260504180022 25 270 27.4 41.8 0.00 0.00 0.00 49 1002.0
20260504175825 25 260 32.2 51.5 0.00 0.00 0.00 49 1002.1
20260504175623 25 244 32.2 51.5 0.00 0.00 0.00 49 1002.1
20260504175423 25 244 32.2 51.5 0.00 0.00 0.00 49 1002.2
20260504175227 25 244 32.2 51.5 0.00 0.00 0.00 49 1002.2
20260504175026 25 241 33.8 51.5 0.00 0.00 0.00 49 1002.3
20260504174830 25 244 33.8 51.5 0.00 0.00 0.00 49 1002.2
20260504174630 25 244 30.6 51.5 0.00 0.00 0.00 49 1002.3
20260504174430 25 258 27.4 40.2 0.00 0.00 0.00 49 1002.4
20260504174235 25 264 27.4 40.2 0.00 0.00 0.00 49 1002.2
20260504174034 25 264 27.4 40.2 0.00 0.00 0.00 49 1002.2
20260504173812 25 264 27.4 40.2 0.00 0.00 0.00 49 1002.3
20260504173615 25 242 29.0 41.8 0.00 0.00 0.00 50 1002.4
20260504173415 25 245 29.0 41.8 0.00 0.00 0.00 51 1002.3
20260504173219 25 246 27.4 41.8 0.00 0.00 0.00 48 1002.3
20260504173019 24 244 24.1 35.4 0.00 0.00 0.00 50 1002.4
20260504172818 24 259 22.5 35.4 0.00 0.00 0.00 51 1002.3
20260504172621 24 255 20.9 38.6 0.00 0.00 0.00 54 1002.5
20260504172421 24 254 22.5 38.6 0.00 0.00 0.00 52 1002.5
20260504172225 23 243 24.1 38.6 0.00 0.00 0.00 52 1002.5
20260504172023 23 246 25.7 38.6 0.00 0.00 0.00 52 1002.4
20260504171824 23 248 25.7 38.6 0.00 0.00 0.00 52 1002.5
20260504171615 23 253 25.7 33.8 0.00 0.00 0.00 52 1002.5
20260504171219 23 248 24.1 33.8 0.00 0.00 0.00 54 1002.5
20260504171023 23 268 25.7 33.8 0.00 0.00 0.00 53 1002.5
20260504170823 23 248 24.1 35.4 0.00 0.00 0.00 54 1002.6
20260504170625 23 252 25.7 35.4 0.00 0.00 0.00 53 1002.6
20260504170425 23 244 22.5 35.4 0.00 0.00 0.00 52 1002.5
20260504170225 23 260 22.5 35.4 0.00 0.00 0.00 53 1002.7
20260504160348 20 248 19.3 29.0 0.00 0.00 0.00 58 1003.2
20260504160152 20 245 17.7 29.0 0.00 0.00 0.00 59 1003.1
20260504151031 20 246 24.1 43.5 0.00 0.00 0.00 57 1003.1
20260504150834 20 257 27.4 43.5 0.00 0.00 0.00 55 1003.1
20260504150634 20 244 30.6 51.5 0.00 0.00 0.00 55 1003.1
20260504150434 21 252 30.6 51.5 0.00 0.00 0.00 55 1003.2
20260504150237 21 249 30.6 51.5 0.00 0.00 0.00 55 1003.3
20260504141248 20 240 20.9 32.2 0.00 0.00 0.00 60 1003.7
20260504141048 20 257 20.9 32.2 0.00 0.00 0.00 59 1003.8
20260504140852 19 248 20.9 32.2 0.00 0.00 0.00 60 1003.8
20260504140629 19 258 19.3 30.6 0.00 0.00 0.00 60 1003.9
20260504140435 18 218 20.9 32.2 0.00 0.00 0.00 60 1003.9
20260504140234 18 258 22.5 32.2 0.00 0.00 0.00 60 1003.9
20260504130658 17 239 20.9 29.0 0.00 0.00 0.00 63 1004.4
20260504130458 17 248 22.5 29.0 0.00 0.00 0.00 63 1004.4
20260504130258 17 243 20.9 25.7 0.00 0.00 0.00 64 1004.3
20260504120202 13 184 4.8 9.7 0.00 0.00 0.00 81 1004.8
20260504110528 13 163 6.4 9.7 0.00 0.00 0.00 79 1004.7
20260504110327 13 163 6.4 9.7 0.00 0.00 0.00 79 1004.7
20260504110126 13 163 8.0 9.7 0.00 0.00 0.00 80 1004.8
20260504100428 13 161 8.0 9.7 0.00 0.00 0.00 81 1005.3
20260504100228 13 161 8.0 9.7 0.00 0.00 0.00 80 1005.3
20260504081901 17 224 6.4 8.0 0.00 0.00 0.00 68 1005.8
20260504081701 17 226 6.4 8.0 0.00 0.00 0.00 68 1005.7
20260504081451 17 220 6.4 8.0 0.00 0.00 0.00 67 1005.8
20260504081116 17 229 6.4 8.0 0.00 0.00 0.00 67 1005.8
20260504080920 17 229 6.4 8.0 0.00 0.00 0.00 66 1005.8
20260504080719 17 226 6.4 8.0 0.00 0.00 0.00 67 1005.9
20260504080523 17 225 6.4 8.0 0.00 0.00 0.00 67 1005.9
20260504080323 17 237 4.8 8.0 0.00 0.00 0.00 67 1005.9
20260504080123 17 248 4.8 6.4 0.00 0.00 0.00 67 1005.9
20260504070402 17 284 4.8 9.7 0.00 0.00 0.00 68 1006.6
20260504070202 17 284 4.8 9.7 0.00 0.00 0.00 69 1006.7
20260504060209 17 271 6.4 12.9 0.00 0.00 0.00 64 1006.8
20260504050625 18 231 6.4 9.7 0.00 0.00 0.00 62 1006.4
20260504050428 18 229 6.4 9.7 0.00 0.00 0.00 63 1006.4
20260504050206 17 221 6.4 9.7 0.00 0.00 0.00 64 1006.4
20260504050006 17 270 6.4 9.7 0.00 0.00 0.00 64 1006.4
20260504045811 17 270 4.8 6.4 0.00 0.00 0.00 64 1006.4
20260504045610 17 270 4.8 9.7 0.00 0.00 0.00 65 1006.4
20260504045410 17 270 4.8 9.7 0.00 0.00 0.00 65 1006.4
20260504045215 17 270 4.8 9.7 0.00 0.00 0.00 65 1006.4
20260504045015 17 270 6.4 11.3 0.00 0.00 0.00 65 1006.5
20260504044758 17 270 6.4 11.3 0.00 0.00 0.00 65 1006.5
20260504044558 17 270 8.0 11.3 0.00 0.00 0.00 65 1006.5
20260504044358 17 270 6.4 11.3 0.00 0.00 0.00 65 1006.5
20260504044201 17 270 4.8 11.3 0.00 0.00 0.00 66 1006.5
20260504044001 17 270 1.6 6.4 0.00 0.00 0.00 67 1006.5
20260504043804 17 270 1.6 6.4 0.00 0.00 0.00 67 1006.5
20260504043605 17 270 1.6 6.4 0.00 0.00 0.00 68 1006.6
20260504043406 17 270 3.2 6.4 0.00 0.00 0.00 68 1006.6
20260504043208 17 270 3.2 6.4 0.00 0.00 0.00 67 1006.6
20260504043008 17 270 3.2 6.4 0.00 0.00 0.00 67 1006.6
20260504042808 17 270 3.2 4.8 0.00 0.00 0.00 68 1006.7
20260504042611 17 270 3.2 4.8 0.00 0.00 0.00 69 1006.7
20260504042412 17 270 3.2 4.8 0.00 0.00 0.00 69 1006.7
20260504042215 17 270 1.6 4.8 0.00 0.00 0.00 69 1006.7
20260504041954 17 270 1.6 4.8 0.00 0.00 0.00 69 1006.8
20260504041753 17 270 3.2 4.8 0.00 0.00 0.00 69 1006.8
20260504041604 17 270 3.2 4.8 0.00 0.00 0.00 68 1006.8
20260504041230 17 270 3.2 4.8 0.00 0.00 0.00 68 1006.9
20260504041013 17 270 3.2 4.8 0.00 0.00 0.00 68 1006.9
20260504040751 17 270 3.2 4.8 0.00 0.00 0.00 68 1007.0
20260504040555 18 270 3.2 4.8 0.00 0.00 0.00 68 1007.0
20260504040354 18 270 3.2 4.8 0.00 0.00 0.00 67 1007.0
20260504040153 18 270 3.2 4.8 0.00 0.00 0.00 67 1007.0
20260504035957 18 270 4.8 4.8 0.00 0.00 0.00 66 1007.0
20260504035756 18 270 3.2 4.8 0.00 0.00 0.00 65 1007.0
20260504035559 18 270 3.2 4.8 0.00 0.00 0.00 65 1007.1
20260504035358 18 270 1.6 4.8 0.00 0.00 0.00 65 1007.1
20260504035157 18 270 1.6 3.2 0.00 0.00 0.00 64 1007.2
20260504035000 18 270 1.6 3.2 0.00 0.00 0.00 64 1007.3
20260504034739 18 270 0.0 3.2 0.00 0.00 0.00 64 1007.2
20260504034518 18 270 0.0 4.8 0.00 0.00 0.00 63 1007.3
20260504034300 18 270 0.0 4.8 0.00 0.00 0.00 63 1007.3
20260504034100 18 270 1.6 4.8 0.00 0.00 0.00 63 1007.3
20260504033904 18 270 3.2 4.8 0.00 0.00 0.00 62 1007.3
20260504033643 18 270 3.2 4.8 0.00 0.00 0.00 63 1007.3
20260504033443 19 270 1.6 6.4 0.00 0.00 0.00 62 1007.3
20260504033246 19 270 1.6 6.4 0.00 0.00 0.00 62 1007.3
20260504033046 19 270 1.6 6.4 0.00 0.00 0.00 62 1007.3
20260504032849 19 270 3.2 9.7 0.00 0.00 0.00 62 1007.3
20260504032628 19 270 3.2 9.7 0.00 0.00 0.00 61 1007.3
20260504032427 19 270 4.8 9.7 0.00 0.00 0.00 61 1007.3
20260504032231 20 270 4.8 9.7 0.00 0.00 0.00 61 1007.3
20260504032031 20 270 4.8 12.9 0.00 0.00 0.00 60 1007.4
20260504031831 20 270 6.4 17.7 0.00 0.00 0.00 60 1007.4
20260504031643 20 270 8.0 17.7 0.00 0.00 0.00 59 1007.4
20260504031312 20 248 11.3 20.9 0.00 0.00 0.00 58 1007.5
20260504031051 20 248 12.9 20.9 0.00 0.00 0.00 58 1007.4
20260504030851 20 246 12.9 20.9 0.00 0.00 0.00 58 1007.4
20260504030655 20 267 12.9 20.9 0.00 0.00 0.00 58 1007.4
20260504030454 20 234 12.9 22.5 0.00 0.00 0.00 58 1007.4
20260504030254 20 249 14.5 24.1 0.00 0.00 0.00 58 1007.4
20260504030035 20 251 16.1 25.7 0.00 0.00 0.00 57 1007.4
20260504025835 20 252 16.1 25.7 0.00 0.00 0.00 57 1007.4
20260504025639 20 240 16.1 25.7 0.00 0.00 0.00 57 1007.3
20260504025439 20 246 17.7 25.7 0.00 0.00 0.00 57 1007.3
20260504025239 20 252 17.7 25.7 0.00 0.00 0.00 57 1007.3
20260504025042 21 246 19.3 25.7 0.00 0.00 0.00 57 1007.3
20260504024820 21 244 17.7 25.7 0.00 0.00 0.00 56 1007.3
20260504024603 21 234 17.7 25.7 0.00 0.00 0.00 57 1007.3
20260504024403 21 246 17.7 25.7 0.00 0.00 0.00 57 1007.1
20260504024202 21 257 16.1 25.7 0.00 0.00 0.00 57 1007.2
20260504024006 21 248 16.1 25.7 0.00 0.00 0.00 57 1007.1
20260504023805 21 238 17.7 25.7 0.00 0.00 0.00 56 1007.2
20260504023545 21 238 19.3 25.7 0.00 0.00 0.00 56 1007.1
20260504023348 21 242 17.7 22.5 0.00 0.00 0.00 56 1007.1
20260504023147 21 241 17.7 22.5 0.00 0.00 0.00 56 1007.1
20260504022950 21 246 17.7 22.5 0.00 0.00 0.00 56 1007.1
20260504022750 21 242 17.7 22.5 0.00 0.00 0.00 56 1007.1
20260504022550 21 248 16.1 25.7 0.00 0.00 0.00 56 1007.0
20260504022355 21 243 17.7 25.7 0.00 0.00 0.00 56 1007.0
20260504022154 21 236 16.1 25.7 0.00 0.00 0.00 55 1007.0
20260504021957 21 232 16.1 25.7 0.00 0.00 0.00 56 1007.0
20260504021757 21 240 14.5 25.7 0.00 0.00 0.00 56 1007.0
20260504021610 21 229 12.9 19.3 0.00 0.00 0.00 55 1007.0
20260504021235 21 237 12.9 17.7 0.00 0.00 0.00 55 1007.0
20260504021035 21 237 11.3 17.7 0.00 0.00 0.00 55 1007.0
20260504020818 21 240 11.3 17.7 0.00 0.00 0.00 54 1006.9
20260504020557 21 239 12.9 22.5 0.00 0.00 0.00 54 1006.9
20260504020401 21 227 12.9 22.5 0.00 0.00 0.00 54 1006.9
20260504020202 21 229 14.5 22.5 0.00 0.00 0.00 53 1006.9
20260504020002 21 229 14.5 22.5 0.00 0.00 0.00 53 1006.9
20260504015805 21 245 12.9 22.5 0.00 0.00 0.00 53 1006.9
20260504015604 21 232 14.5 22.5 0.00 0.00 0.00 53 1006.9
20260504015404 21 236 12.9 20.9 0.00 0.00 0.00 53 1006.9
20260504015208 21 234 14.5 20.9 0.00 0.00 0.00 53 1006.9
20260504015008 21 235 14.5 20.9 0.00 0.00 0.00 53 1006.9
20260504014750 22 241 14.5 20.9 0.00 0.00 0.00 53 1006.9
20260504014549 22 239 14.5 20.9 0.00 0.00 0.00 53 1006.9
20260504014348 22 240 14.5 20.9 0.00 0.00 0.00 52 1006.8
20260504014152 22 246 14.5 20.9 0.00 0.00 0.00 52 1006.8
20260504013951 22 238 14.5 22.5 0.00 0.00 0.00 53 1006.9
20260504013755 22 243 16.1 22.5 0.00 0.00 0.00 53 1006.9
20260504013555 22 242 16.1 22.5 0.00 0.00 0.00 52 1006.9
20260504013333 22 248 16.1 22.5 0.00 0.00 0.00 52 1006.8
20260504013137 22 239 14.5 22.5 0.00 0.00 0.00 52 1006.8
20260504012916 22 239 14.5 22.5 0.00 0.00 0.00 52 1006.8
20260504012716 22 236 14.5 22.5 0.00 0.00 0.00 52 1006.8
20260504012519 22 238 14.5 19.3 0.00 0.00 0.00 53 1006.9
20260504012319 22 247 14.5 17.7 0.00 0.00 0.00 53 1006.9
20260504012123 22 240 14.5 17.7 0.00 0.00 0.00 53 1006.9
20260504011923 22 238 14.5 17.7 0.00 0.00 0.00 53 1006.9
20260504011723 22 234 14.5 19.3 0.00 0.00 0.00 53 1006.9
20260504011535 22 241 12.9 19.3 0.00 0.00 0.00 52 1006.9
20260504011139 22 244 12.9 19.3 0.00 0.00 0.00 53 1006.8
20260504010920 22 242 12.9 19.3 0.00 0.00 0.00 52 1006.9
20260504010720 22 238 12.9 20.9 0.00 0.00 0.00 52 1006.9
20260504010504 22 249 12.9 20.9 0.00 0.00 0.00 52 1006.8
20260504010302 22 244 12.9 20.9 0.00 0.00 0.00 52 1006.8
20260504005906 22 242 12.9 19.3 0.00 0.00 0.00 51 1006.8
20260504005706 22 238 12.9 19.3 0.00 0.00 0.00 51 1006.7
20260504005509 23 252 12.9 19.3 0.00 0.00 0.00 51 1006.7
20260504005309 23 245 11.3 17.7 0.00 0.00 0.00 50 1006.8
20260504005048 23 240 11.3 19.3 0.00 0.00 0.00 50 1006.8
20260504004829 23 239 12.9 22.5 0.00 0.00 0.00 50 1006.8
20260504004629 23 237 14.5 22.5 0.00 0.00 0.00 49 1006.8
20260504004429 23 242 16.1 22.5 0.00 0.00 0.00 49 1006.8
20260504004211 23 245 14.5 22.5 0.00 0.00 0.00 48 1006.8
20260504003949 23 232 12.9 20.9 0.00 0.00 0.00 48 1006.8
20260504003731 23 242 12.9 19.3 0.00 0.00 0.00 48 1006.8
20260504003531 24 239 14.5 19.3 0.00 0.00 0.00 48 1006.8
20260504003332 24 246 14.5 19.3 0.00 0.00 0.00 47 1006.8
20260504003136 24 237 14.5 22.5 0.00 0.00 0.00 48 1006.9
20260504002936 24 248 14.5 22.5 0.00 0.00 0.00 47 1006.8
20260504002718 24 244 16.1 22.5 0.00 0.00 0.00 46 1006.9
20260504002518 24 243 16.1 22.5 0.00 0.00 0.00 46 1006.9
20260504002318 25 242 16.1 22.5 0.00 0.00 0.00 46 1006.8
20260504002120 25 224 14.5 22.5 0.00 0.00 0.00 46 1006.9
20260504001920 25 239 14.5 24.1 0.00 0.00 0.00 46 1006.9
20260504001719 25 244 16.1 24.1 0.00 0.00 0.00 47 1006.9
20260504001533 25 244 16.1 24.1 0.00 0.00 0.00 45 1007.0
20260504001202 25 252 17.7 24.1 0.00 0.00 0.00 45 1007.0
20260504001001 25 245 16.1 24.1 0.00 0.00 0.00 46 1006.9
20260504000802 25 247 14.5 22.5 0.00 0.00 0.00 45 1007.0
20260504000605 25 242 14.5 22.5 0.00 0.00 0.00 44 1007.0
20260504000404 25 252 12.9 20.9 0.00 0.00 0.00 45 1006.9
20260504000204 25 259 14.5 20.9 0.00 0.00 0.00 44 1006.9
20260504000008 25 246 14.5 19.3 0.00 0.00 0.00 44 1006.9
20260503235808 25 246 16.1 22.5 0.00 0.00 0.00 44 1007.0
20260503235612 25 240 14.5 22.5 0.00 0.00 0.00 44 1007.0
20260503235412 25 242 14.5 22.5 0.00 0.00 0.00 44 1007.0
20260503235211 25 235 14.5 22.5 0.00 0.00 0.00 43 1007.0
20260503235015 25 256 14.5 22.5 0.00 0.00 0.00 44 1007.1
20260503234814 26 241 14.5 20.9 0.00 0.00 0.00 43 1007.1
20260503234618 26 245 14.5 20.9 0.00 0.00 0.00 43 1007.1
20260503234418 26 258 14.5 24.1 0.00 0.00 0.00 42 1007.1
20260503234218 26 262 14.5 24.1 0.00 0.00 0.00 42 1007.2
20260503234022 26 259 17.7 24.1 0.00 0.00 0.00 43 1007.3
20260503233822 26 248 19.3 24.1 0.00 0.00 0.00 43 1007.2
20260503233600 26 252 19.3 24.1 0.00 0.00 0.00 42 1007.3
20260503233405 26 255 19.3 24.1 0.00 0.00 0.00 43 1007.3
20260503233204 26 243 19.3 24.1 0.00 0.00 0.00 42 1007.3
20260503233008 26 242 17.7 32.2 0.00 0.00 0.00 43 1007.3
20260503232808 26 246 19.3 38.6 0.00 0.00 0.00 43 1007.3
20260503232607 26 269 20.9 38.6 0.00 0.00 0.00 42 1007.3
20260503232411 26 268 22.5 38.6 0.00 0.00 0.00 41 1007.3
20260503232211 26 254 22.5 38.6 0.00 0.00 0.00 42 1007.4
20260503232016 26 275 24.1 37.0 0.00 0.00 0.00 42 1007.4
20260503231814 26 254 20.9 32.2 0.00 0.00 0.00 42 1007.4
20260503231625 26 265 22.5 33.8 0.00 0.00 0.00 41 1007.4
20260503231250 26 266 24.1 33.8 0.00 0.00 0.00 40 1007.3
20260503231029 26 261 25.7 33.8 0.00 0.00 0.00 41 1007.5
20260503230834 26 255 25.7 33.8 0.00 0.00 0.00 41 1007.4
20260503230634 26 270 22.5 30.6 0.00 0.00 0.00 41 1007.4
20260503230437 26 254 22.5 30.6 0.00 0.00 0.00 41 1007.5
20260503230237 26 254 19.3 29.0 0.00 0.00 0.00 40 1007.5
20260503230037 26 254 17.7 38.6 0.00 0.00 0.00 40 1007.5
20260503225841 26 244 17.7 38.6 0.00 0.00 0.00 41 1007.4
20260503225641 26 280 22.5 38.6 0.00 0.00 0.00 41 1007.4
20260503225420 26 269 24.1 38.6 0.00 0.00 0.00 41 1007.4
20260503225223 26 271 22.5 38.6 0.00 0.00 0.00 40 1007.5
20260503225023 26 261 20.9 29.0 0.00 0.00 0.00 40 1007.5
20260503224827 26 255 19.3 29.0 0.00 0.00 0.00 40 1007.5
20260503224627 26 261 19.3 30.6 0.00 0.00 0.00 40 1007.5
20260503224426 26 242 20.9 33.8 0.00 0.00 0.00 40 1007.5
20260503224230 26 255 22.5 33.8 0.00 0.00 0.00 40 1007.4
20260503224029 26 261 24.1 33.8 0.00 0.00 0.00 40 1007.5
20260503223833 26 274 24.1 33.8 0.00 0.00 0.00 41 1007.6
20260503223632 26 274 24.1 33.8 0.00 0.00 0.00 40 1007.5
20260503223432 26 267 20.9 32.2 0.00 0.00 0.00 41 1007.5
20260503223236 26 266 20.9 33.8 0.00 0.00 0.00 41 1007.5
20260503223014 26 287 20.9 33.8 0.00 0.00 0.00 41 1007.5
20260503222813 26 273 22.5 38.6 0.00 0.00 0.00 40 1007.6
20260503222556 26 266 20.9 38.6 0.00 0.00 0.00 40 1007.7
20260503222356 26 266 22.5 38.6 0.00 0.00 0.00 40 1007.7